Regional Weather Roundup
Issued by NWS Upton, NY

Current Version | Previous Version | Text Only | Print | Product List | Glossary Off
Versions: 1 2 3 4 5 6 7 8 9 10 11 12 13 14 15 16 17 18 19 20 21 22 23 24 25 26 27 28 29 30 31 32 33 34 35 36 37 38 39 40 41 42 43 44 45 46 47 48 49 50
000 ASUS41 KOKX 210809 RWROKX REGIONAL WEATHER ROUNDUP NATIONAL WEATHER SERVICE NEW YORK NY 400 AM EDT MON AUG 21 2017 NOTE: "FAIR" INDICATES FEW OR NO CLOUDS BELOW 12,000 FEET WITH NO SIGNIFICANT WEATHER AND/OR OBSTRUCTIONS TO VISIBILITY. NYZ071-072-176-178-NJZ106-104-210900- NEW YORK CITY METRO AREA CITY SKY/WX TMP DP RH WIND PRES REMARKS Central Park CLEAR 73 61 65 CALM 30.19S Bronx Bot Gard N/A 70 59 68 NE2 30.17R LaGuardia APRT CLEAR 77 63 61 CALM 30.15S Kennedy INTL PTCLDY 71 68 90 SW5 30.17S Breezy Point N/A 72 N/A N/A W5 N/A Newark/Liberty PTCLDY 71 63 75 CALM 30.16S Teterboro PTCLDY 69 63 81 CALM 30.15S $$ NYZ177-179-078>081-210900- LONG ISLAND NEW YORK CITY SKY/WX TMP DP RH WIND PRES REMARKS Jones Beach N/A 72 N/A N/A W2 N/A Matinecock PT N/A 72 N/A N/A SW1 N/A Farmingdale CLEAR 68 61 78 CALM 30.17S MacArthur/ISP CLEAR 65 61 87 CALM 30.16S Shirley CLEAR 64 62 93 CALM 30.17S Mt Sinai Harb N/A N/A N/A N/A MISG N/A Westhampton CLEAR 56 53 90 CALM 30.18S East Hampton FAIR 58 56 94 CALM 30.15F Montauk N/A 68 66 93 CALM 30.17R $$ NYZ052-065-067-210900- HUDSON VALLEY CITY SKY/WX TMP DP RH WIND PRES REMARKS White Plains CLEAR 65 62 90 NW3 30.17S Larchmont Harb N/A 68 N/A N/A MISG N/A Croton On Huds N/A 64 N/A N/A MISG N/A Newburgh CLEAR 64 63 94 CALM 30.19S Montgomery CLEAR 61 59 93 CALM 30.17S Poughkeepsie PTCLDY 61 59 93 CALM 30.16R Albany PTCLDY 62 58 86 CALM 30.16R $$ NJZ001-105-106-008-010-013-015-019>022-104-210900- NEW JERSEY CITY SKY/WX TMP DP RH WIND PRES REMARKS Newark/Liberty PTCLDY 71 63 75 CALM 30.16S Teterboro PTCLDY 69 63 81 CALM 30.15S Caldwell CLEAR 64 63 96 CALM 30.18S Somerville CLEAR 62 62 100 CALM 30.17R Linden FAIR 69 63 81 NW5 30.17S Perth Amboy N/A 68 N/A N/A W6 N/A Sussex PTCLDY 60 60 100 CALM 30.19R Andover N/A 61 59 93 CALM 30.20R Trenton CLEAR 67 63 87 CALM 30.18S Millville PTCLDY 63 62 97 CALM 30.19R Atlantic City PTCLDY 66 62 87 CALM 30.18S Wrightstown CLEAR 63 61 93 CALM 30.16S Toms River CLEAR 60 59 96 CALM 30.19S Belmar CLEAR 65 61 87 CALM 30.19S $$ PAZ047>061-062-071-210900- EASTERN PENNSYLVANIA CITY SKY/WX TMP DP RH WIND PRES REMARKS Philadelphia PTCLDY 70 64 81 CALM 30.19S Allentown FOG 63 61 93 CALM 30.19R VSB 1 Scranton PTCLDY 62 61 96 E3 30.20S $$ CTZ002-004>006-009-010-012-RIZ004-006-007-MAZ004-011-015-210900- SOUTHERN NEW ENGLAND IN CT CITY SKY/WX TMP DP RH WIND PRES REMARKS Bradley INTL PTCLDY 62 59 90 CALM 30.16S Hartford CLEAR 64 62 93 CALM 30.16S Danbury CLEAR 61 60 97 SW3 30.19S Wtrbury/Oxford CLEAR 59 58 96 CALM 30.19S Norwalk Harbor N/A 70 N/A N/A S5 N/A Bridgeport CLEAR 66 61 84 E3 30.16S Meriden PTCLDY 59 58 96 CALM 30.16F New Haven CLEAR 64 61 90 CALM 30.16S Chester FAIR 68 59 73 CALM 30.17S Groton CLEAR 61 60 97 CALM 30.15S Wilimantic CLEAR 58 57 97 NE3 30.16S IN RI CITY SKY/WX TMP DP RH WIND PRES REMARKS Providence CLEAR 66 60 81 W6 30.15R Block Island CLEAR 68 61 78 W7 30.16S Westerly CLEAR 62 59 90 CALM 30.16R IN MA CITY SKY/WX TMP DP RH WIND PRES REMARKS Boston CLEAR 70 59 68 W9 30.13R Worcester CLEAR 63 55 75 W10 30.17R Westfield CLEAR 57 57 100 CALM 30.16S Provincetown CLEAR 64 61 90 W7 30.13R Nantucket CLEAR 63 63 100 W3 30.14R $$ ANZ330-335-338-340-345-350-353-355-210900- COASTAL MARINE OBSERVATIONS STATION/POSITION TIME SKY/WX TEMP WIND PRES VSBY WAVE AIR SEA DIR/SP/G HT/PER (UTC) (F) (DEG/KT/KT) (MB) (MI) (FT/S) NY HARB ENTRANCE 0750 75 76 260/ 8/ 8 1021.0 2/ 8 GREAT SOUTH BAY 0730 74 78 310/ 4/ 6 N/A 23 SSW MONTAUK P 0750 72 72 1021.6 2/ 8 15 E BARNEGAT LI 0730 77 N/A 2/ 9 HUDSON CANYON 0750 75 74 240/ 6/ 8 1021.2 2/ 6 KINGS POINT 0730 71 74 210/ 3/ 4 1021.2 EXECUTION ROCKS NOT AVBL WESTERN LI SOUND NOT AVBL CENTRAL LI SOUND NOT AVBL EASTERN LI SOUND NOT AVBL ROBBINS REEF 0730 250/ 5/ 5 1022.2 $$ >>>>>>>>>>>>>>>>>>>>>>>>>>>> KEY <<<<<<<<<<<<<<<<<<<<<<<<<<< > < > SKY/WX - Sky Condition/Present Weather < > TMP - Temperature in Fahrenheit < > DP - Dew Point in Fahrenheit < > RH - Relative Humidity in Percent < > WIND - Direction (from) and Speed in MPH < > PRES - Mean Sea Level Pressure (inches of Hg) < > WCI - Wind Chill Index < > VSB - VISIBILITY IN MILES < > HX - HEAT INDEX < > TC - TEMPERATURE IN CELSIUS < > VRB - VARIABLE WIND DIRECTION < > < >>>>>>>>>>>>>>>>>>>>>>>>>>>> KEY <<<<<<<<<<<<<<<<<<<<<<<<<<<

USA.gov is the U.S. government's official web portal to all federal, state and local government web resources and services.